GFSFLT1_700_temp_147.txt.gz
Temp
4 3 4 4 4 4 4 3 3 3 4 5 6 7 6 6 6 6 6 7 6 7 6 7 7 7 7 7 7 8 8 6
3 3 3 3 3 3 3 3 3 2 3 4 4 5 5 6 5 5 5 6 6 6 6 7 7 7 7 7 7 7 7 7
2 3 3 3 3 2 2 2 2 2 3 4 4 5 5 6 6 6 4 3 6 6 6 6 7 7 6 7 7 7 7 7
2 2 3 2 2 2 2 2 2 2 2 3 4 5 5 5 5 6 5 4 3 5 5 5 6 6 6 7 7 7 7 7
2 3 3 1 1 1 1 2 1 2 2 2 2 2 3 3 3 4 6 4 4 3 4 4 4 5 6 6 7 7 6 6
2 2 2 1 1 1 1 1 1 1 1 -0 0 1 1 2 2 3 3 4 3 4 4 4 5 5 5 6 6 6 6 6
1 1 1 1 1 1 1 1 0 0 -0 -1 0 1 1 1 1 2 3 3 2 2 3 4 3 1 4 6 6 6 6 6
1 1 0 1 0 1 1 0 -1 -1 -1 -1 0 -0 -0 -0 0 0 1 2 1 0 1 2 2 4 2 4 6 6 6 6
-0 -1 -1 -1 -0 -0 0 -1 -1 -2 -2 -1 0 -1 -1 -2 -1 -1 -0 1 0 -1 -0 1 1 3 4 3 5 6 6 5
-1 -1 -1 -1 -1 -1 -1 -2 -2 -3 -3 -3 -1 -1 -2 -2 -3 -4 -2 -0 -1 -2 -1 0 1 2 2 2 3 5 6 5
-2 -2 -1 -2 -2 -2 -2 -3 -2 -3 -3 -3 -2 -2 -2 -3 -3 -3 -3 -2 -2 -2 -1 -1 1 1 2 1 3 5 5 5
-2 -2 -2 -2 -3 -3 -3 -3 -2 -2 -3 -2 -2 -2 -2 -2 -3 -3 -3 -2 -2 -1 -1 -1 1 1 0 4 1 1 4 5
-2 -3 -3 -3 -3 -4 -3 -3 -4 -4 -4 -3 -2 -2 -2 -1 -1 -2 -2 -2 -1 0 1 1 0 1 0 4 1 3 4 5
-3 -3 -2 -3 -3 -3 -3 -3 -4 -5 -4 -4 -3 -2 -2 -2 -1 -1 -1 -1 -1 1 3 3 0 -0 2 3 3 2 3 5
-3 -3 -2 -3 -4 -4 -4 -4 -4 -5 -5 -4 -3 -2 -1 -1 -1 -1 -1 -1 -0 -0 -0 0 0 -0 -0 0 2 2 3 5
-3 -3 -3 -3 -3 -4 -4 -4 -4 -4 -4 -5 -5 -4 -3 -2 -2 -1 -1 -0 -0 -0 -0 0 1 1 1 1 1 2 3 4
-4 -4 -4 -3 -4 -4 -4 -4 -4 -4 -4 -4 -4 -4 -3 -2 -0 -0 -1 -1 -0 -0 -0 1 0 1 2 3 4 2 2 4
-5 -5 -4 -4 -4 -4 -4 -4 -4 -4 -4 -4 -4 -3 -3 -4 -2 -1 -0 -1 -1 -0 0 1 1 1 2 1 1 2 2 3
-6 -5 -5 -5 -5 -5 -5 -5 -5 -4 -4 -4 -4 -4 -3 -2 -3 -3 -2 -2 -1 -1 -0 0 2 1 1 1 2 3 2 2

GFSFLT1_700_temp_153.txt.gz
Temp
4 4 5 5 5 4 4 4 4 4 5 5 6 6 6 6 6 6 6 6 5 5 6 6 6 5 5 5 5 5 5 6
4 4 5 5 4 4 4 4 3 4 5 6 5 5 5 5 5 5 5 5 5 5 5 5 5 6 5 4 5 5 5 5
4 4 4 4 4 4 3 3 4 5 5 5 5 5 5 4 4 5 5 5 5 5 5 4 4 4 5 5 4 4 5 5
3 3 3 4 4 3 3 3 4 4 4 4 3 3 3 4 5 5 3 2 2 3 4 4 4 4 4 4 4 3 4 5
2 2 2 3 3 3 3 3 4 4 3 3 3 4 4 3 4 3 2 2 2 2 2 2 4 4 4 4 4 4 3 5
2 2 2 2 2 3 3 3 3 3 2 2 3 3 3 3 3 2 2 2 2 1 2 2 2 3 3 2 3 4 4 3
1 2 1 2 2 2 3 3 2 1 1 2 2 3 2 3 3 2 2 2 3 2 1 1 1 2 2 2 2 3 3 3
0 1 1 1 2 2 2 2 1 1 1 1 2 2 1 2 3 2 1 1 1 1 1 -0 -0 -0 1 1 1 2 2 3
0 0 1 1 1 1 1 1 0 0 0 0 1 0 0 1 1 0 0 0 1 0 -1 -2 -2 -2 -1 -0 1 2 2 3
-0 -0 0 0 0 0 0 1 -0 -1 -1 -0 -0 -0 -0 -0 -0 -2 -1 -1 -0 -1 -2 -2 -3 -3 -1 -0 0 1 1 1
-1 -1 -1 -0 -1 -1 -0 -0 -1 -2 -2 -1 -1 -1 -1 -1 -2 -3 -3 -2 -2 -2 -2 -2 -3 -3 -2 -0 -0 0 -0 0
-1 -1 -1 -1 -1 -1 -1 -1 -2 -2 -2 -2 -1 -2 -2 -2 -3 -3 -3 -2 -2 -2 -3 -2 -3 -3 -3 -2 -2 -1 -1 -1
-2 -2 -2 -1 -1 -2 -2 -2 -2 -3 -3 -2 -2 -2 -2 -2 -2 -2 -4 -3 -3 -3 -3 -3 -2 -2 -3 -2 -2 -2 -2 -1
-2 -2 -2 -2 -2 -3 -3 -3 -3 -3 -3 -3 -3 -3 -2 -2 -2 -3 -2 -3 -3 -2 -2 -2 -2 -2 -2 -3 -2 -2 -1 -1
-2 -2 -3 -3 -3 -3 -3 -3 -3 -3 -3 -3 -3 -3 -3 -2 -2 -3 -2 -2 -3 -3 -2 -2 -2 -2 -2 -2 -2 -2 -1 -1
-3 -3 -4 -4 -4 -4 -4 -4 -4 -4 -4 -4 -3 -3 -3 -3 -3 -3 -3 -2 -3 -3 -3 -2 -2 -2 -2 -2 -2 -2 -1 -1
-4 -4 -4 -4 -4 -4 -4 -5 -5 -5 -5 -5 -4 -4 -4 -4 -3 -2 -2 -2 -2 -3 -3 -3 -2 -2 -1 -1 -1 -0 -1 -1
-5 -5 -5 -5 -5 -5 -5 -6 -6 -6 -6 -6 -5 -5 -5 -4 -3 -3 -2 -2 -2 -3 -3 -3 -2 -1 -2 -1 -1 -0 -0 -0
-6 -6 -5 -5 -6 -6 -7 -7 -7 -7 -7 -7 -6 -6 -5 -5 -4 -3 -3 -2 -2 -3 -3 -3 -3 -1 -1 -1 -2 -2 -1 -0

GFSFLT1_700_temp_156.txt.gz
Temp
4 4 4 4 4 4 4 4 5 5 5 5 5 5 6 6 6 6 7 7 6 6 6 5 5 6 6 6 6 5 5 5
4 4 4 3 3 4 4 4 4 4 4 4 5 5 5 5 5 5 5 5 5 5 6 6 5 5 5 5 5 5 4 4
4 4 3 3 4 4 4 4 4 3 4 4 5 5 5 5 5 4 3 3 4 4 4 4 4 4 4 4 4 4 4 3
4 4 3 3 3 3 3 3 3 3 3 4 4 4 5 5 4 4 4 4 3 4 2 2 2 3 3 2 3 3 3 4
4 3 2 2 3 2 2 2 2 3 3 4 4 4 5 5 4 4 3 3 3 4 2 1 2 2 2 2 2 2 3 3
2 2 2 2 1 1 1 2 2 2 3 4 4 4 4 4 3 3 3 3 3 3 1 1 1 2 2 2 2 2 2 3
1 1 1 1 0 0 1 1 2 3 3 3 3 3 3 3 3 3 3 3 3 1 0 1 2 1 1 1 2 1 2 2
0 -0 -0 -0 -0 0 1 2 2 2 2 2 2 2 2 2 2 3 2 3 3 1 0 1 1 1 1 0 -0 -0 0 1
-1 -1 -1 -0 -0 1 1 1 1 1 1 1 0 0 1 1 1 1 1 1 2 1 1 1 0 1 0 -1 -1 -1 -1 -0
-1 -1 -1 -1 -0 0 -0 0 0 0 0 -0 -0 -1 0 0 1 0 -0 -0 1 1 -0 0 -0 -0 -1 -2 -3 -2 -2 -1
-2 -1 -1 -1 -1 -1 -1 -1 -1 -1 -1 -1 -1 -1 -1 -1 -0 -1 -1 -1 -0 -1 -1 -1 -0 -1 -2 -2 -2 -3 -2 -2
-2 -2 -2 -2 -2 -2 -2 -2 -1 -2 -2 -2 -2 -2 -1 -1 -1 -1 -1 -1 -1 -1 -1 -1 -1 -1 -2 -2 -3 -4 -3 -2
-2 -2 -2 -2 -2 -2 -3 -2 -2 -2 -2 -2 -2 -2 -2 -1 -1 -2 -2 -2 -1 -2 -2 -2 -2 -3 -2 -3 -3 -4 -3 -4
-2 -2 -2 -3 -3 -3 -3 -3 -3 -3 -3 -3 -3 -2 -2 -2 -2 -2 -2 -2 -2 -2 -2 -2 -3 -3 -3 -3 -3 -3 -3 -2
-3 -3 -3 -3 -3 -3 -3 -4 -4 -3 -3 -3 -3 -3 -3 -3 -3 -3 -3 -3 -2 -2 -2 -2 -3 -4 -3 -2 -3 -2 -3 -2
-4 -4 -4 -4 -4 -4 -4 -4 -4 -4 -4 -4 -4 -4 -4 -4 -4 -4 -4 -3 -3 -2 -2 -2 -3 -4 -3 -3 -3 -2 -2 -2
-5 -5 -5 -5 -4 -5 -5 -5 -5 -5 -5 -6 -5 -5 -5 -5 -5 -5 -4 -4 -3 -3 -3 -3 -3 -4 -4 -3 -3 -2 -3 -2
-6 -6 -5 -5 -5 -5 -5 -6 -6 -6 -6 -6 -6 -6 -6 -6 -6 -6 -5 -4 -4 -4 -3 -3 -3 -4 -3 -3 -3 -2 -2 -2
-6 -6 -6 -6 -6 -6 -7 -7 -7 -6 -6 -6 -6 -6 -6 -7 -7 -6 -6 -5 -5 -4 -4 -4 -4 -4 -3 -3 -3 -3 -2 -2

GFSFLT1_700_temp_159.txt.gz
Temp
5 5 5 5 4 4 4 4 4 4 4 4 4 4 4 4 5 5 5 5 6 6 7 7 6 6 5 5 5 5 6 6
5 4 4 4 4 4 3 3 3 3 4 4 3 3 4 4 5 5 5 4 4 5 6 6 5 5 5 5 5 4 4 4
4 4 4 4 3 3 2 2 3 3 4 3 3 4 4 4 5 5 5 4 4 5 5 5 4 4 4 3 3 3 3 3
4 4 4 3 3 2 2 2 2 2 3 2 2 3 3 4 4 4 5 5 4 4 4 4 4 4 4 2 2 2 3 3
4 4 4 3 2 1 1 1 1 1 1 2 2 3 3 4 4 4 4 4 4 3 3 3 3 4 3 1 2 2 2 3
4 3 3 2 1 1 0 0 0 1 1 2 2 3 3 3 4 4 4 4 3 2 3 2 2 3 1 0 1 2 2 2
3 2 2 1 0 -0 -0 -0 0 1 1 2 2 2 2 3 3 3 4 3 3 1 2 2 2 3 1 1 1 1 1 2
2 1 -0 -1 -1 -1 -1 -0 0 0 1 1 1 2 2 2 2 3 3 3 3 1 1 1 2 2 1 1 1 1 1 1
1 -1 -1 -2 -1 -1 -1 -0 -0 -0 0 0 1 1 1 1 1 2 2 2 2 1 1 1 1 1 1 0 1 1 1 -0
-1 -2 -2 -2 -2 -1 -1 -1 -1 -1 -0 -0 0 0 -0 0 0 1 1 1 1 1 0 0 0 0 0 0 -0 0 -0 -1
-1 -2 -2 -2 -2 -2 -2 -2 -2 -2 -1 -1 -1 -1 -1 -1 -1 -0 0 -0 -0 -0 -0 -0 -0 -0 -0 -1 -1 0 -1 -1
-2 -3 -2 -2 -2 -2 -2 -2 -2 -2 -2 -2 -2 -2 -2 -2 -1 -1 -1 -1 -1 -1 -1 -1 -1 -1 -1 -1 -1 -1 -1 -1
-2 -3 -2 -3 -3 -3 -3 -3 -3 -3 -3 -3 -3 -2 -2 -2 -2 -2 -2 -1 -2 -1 -1 -1 -1 -1 -1 -2 -1 -1 -1 -2
-3 -3 -3 -4 -3 -3 -4 -4 -4 -4 -4 -4 -3 -4 -3 -3 -3 -3 -3 -2 -2 -3 -2 -2 -2 -2 -1 -1 -1 -1 -2 -2
-3 -3 -4 -4 -4 -5 -4 -4 -4 -4 -4 -4 -4 -4 -5 -5 -5 -4 -4 -4 -4 -4 -4 -3 -3 -2 -2 -2 -2 -2 -2 -3
-4 -4 -5 -5 -6 -6 -5 -5 -5 -5 -5 -5 -6 -6 -6 -6 -6 -5 -5 -5 -5 -5 -5 -4 -3 -3 -3 -2 -2 -2 -3 -2
-5 -5 -6 -6 -6 -6 -6 -5 -6 -6 -6 -6 -6 -6 -6 -6 -6 -6 -6 -6 -6 -6 -6 -5 -4 -4 -3 -3 -3 -3 -3 -3
-6 -5 -6 -7 -7 -6 -6 -6 -6 -6 -7 -7 -7 -7 -6 -6 -6 -7 -7 -7 -7 -7 -6 -6 -5 -5 -4 -4 -3 -4 -3 -2
-6 -6 -7 -8 -7 -7 -7 -7 -7 -7 -7 -7 -7 -7 -7 -7 -7 -7 -8 -8 -7 -7 -7 -6 -6 -6 -6 -5 -5 -4 -4 -3

GFSFLT1_700_temp_162.txt.gz
Temp
5 5 5 5 5 4 4 4 3 3 3 3 3 3 4 4 4 4 5 5 6 6 6 6 7 7 6 6 6 6 6 6
5 5 5 4 4 4 4 4 3 3 2 2 2 2 3 3 3 4 4 5 5 5 6 6 6 6 6 5 5 5 5 5
5 5 4 4 4 4 4 3 3 2 2 2 2 2 2 3 3 4 4 4 5 5 5 5 5 6 6 5 5 5 5 4
4 4 4 4 4 3 3 2 2 1 1 1 1 2 2 2 3 3 4 4 4 5 4 5 5 5 5 5 4 4 5 2
5 4 4 4 3 3 2 1 1 0 0 0 1 1 2 2 3 3 3 4 4 4 4 4 4 4 4 4 4 4 3 1
4 4 3 3 3 2 1 0 -0 -0 -0 0 0 1 1 2 2 3 3 3 3 3 3 3 3 4 3 3 3 3 2 1
4 3 3 2 2 1 -0 -0 -1 -1 -0 -0 -0 0 1 1 2 2 2 2 2 2 2 2 3 3 3 3 2 2 1 1
3 2 2 1 0 -0 -1 -1 -1 -1 -1 -1 -0 0 0 1 1 1 1 2 2 2 2 2 2 2 2 2 1 1 1 1
3 1 0 -1 -1 -2 -2 -2 -1 -1 -1 -1 -1 -0 -0 0 0 0 1 1 1 1 2 2 2 1 1 1 1 0 0 1
2 0 -1 -2 -2 -2 -2 -2 -2 -2 -2 -2 -1 -1 -1 -1 -1 -0 -0 0 0 1 1 1 0 0 0 -0 -0 -0 -0 -0
1 -0 -2 -2 -2 -2 -2 -2 -2 -2 -2 -2 -2 -2 -2 -2 -1 -1 -1 -1 -0 -0 -0 -0 -0 -1 -1 -1 -0 -1 -1 -1
-0 -1 -2 -2 -2 -2 -2 -3 -3 -3 -3 -3 -3 -3 -3 -2 -2 -2 -2 -2 -2 -2 -1 -1 -1 -1 -1 -2 -1 -1 -1 -1
-1 -1 -2 -2 -3 -3 -3 -4 -4 -4 -4 -4 -3 -3 -3 -3 -3 -3 -3 -3 -3 -3 -3 -3 -3 -2 -3 -3 -2 -2 -1 -1
-2 -2 -3 -3 -3 -4 -4 -5 -4 -5 -4 -4 -4 -4 -4 -4 -4 -5 -5 -5 -5 -5 -5 -5 -5 -4 -4 -4 -3 -3 -2 -1
-2 -3 -4 -4 -5 -5 -5 -5 -5 -5 -5 -5 -5 -5 -5 -5 -5 -6 -6 -6 -6 -6 -6 -6 -6 -6 -5 -5 -4 -3 -3 -2
-3 -3 -4 -5 -5 -5 -5 -6 -5 -6 -6 -5 -6 -6 -6 -6 -6 -6 -6 -6 -6 -6 -6 -7 -6 -6 -6 -5 -5 -4 -3 -2
-3 -4 -5 -5 -6 -6 -7 -6 -6 -6 -6 -6 -6 -7 -7 -7 -7 -7 -7 -7 -7 -7 -7 -7 -7 -7 -7 -6 -6 -5 -4 -3
-4 -5 -5 -6 -7 -7 -8 -7 -6 -6 -7 -6 -6 -7 -7 -7 -7 -7 -7 -7 -7 -7 -8 -8 -8 -8 -7 -7 -6 -6 -6 -5
-5 -6 -6 -7 -7 -8 -8 -7 -7 -7 -7 -7 -7 -7 -8 -8 -8 -8 -8 -8 -8 -8 -9 -9 -9 -9 -8 -8 -7 -7 -7 -7